Location: Unspecified
(0.0000°N, 0.0000°E)
Time: 07:22:29
(UTC+00:00)

Transit 4A - Pass Details

Date: 05 October 2023
Orbit: 864 x 979 km, 66.8° (Epoch: 05 December)

Event Time Altitude Azimuth Distance (km) Brightness Sun altitude
Rises 07:24:23 0° 173° (S) 3,539 11.1 23.9°
Reaches altitude 10° 07:27:31 10° 157° (SSE) 2,616 10.7 24.7°
Maximum altitude 07:31:59 21° 109° (ESE) 1,960 11.7 25.8°
Drops below altitude 10° 07:36:30 10° 62° (ENE) 2,667 11.3 26.9°
Sets 07:39:42 0° 47° (NE) 3,628 11.6 27.7°
